Time,TemperatureF,DewpointF,PressureIn,WindDirection,WindDirectionDegrees,WindSpeedMPH,WindSpeedGustMPH,Humidity,HourlyPrecipIn,Conditions,Clouds,dailyrainin,SolarRadiationWatts/m^2,SoftwareType,DateUTC
2013-03-23 00:02:00,35.0,32.0,-100.00,East,96,1.0,3.0,88,0.00,,,0.06,0.000000,,2013-03-23 07:02:00,
2013-03-23 00:12:00,35.0,32.0,-100.00,East,96,1.0,3.0,88,0.00,,,0.06,0.000000,,2013-03-23 07:12:00,
2013-03-23 00:33:00,35.0,33.0,-100.00,ENE,77,2.0,4.0,91,0.00,,,0.06,0.000000,,2013-03-23 07:33:00,
2013-03-23 00:42:00,35.0,33.0,-100.00,ENE,77,2.0,4.0,91,0.00,,,0.06,0.000000,,2013-03-23 07:42:00,
2013-03-23 00:52:00,35.0,33.0,-100.00,ENE,77,2.0,4.0,91,0.00,,,0.06,0.000000,,2013-03-23 07:52:00,
2013-03-23 01:02:00,35.0,33.0,-100.00,ENE,77,2.0,4.0,91,0.00,,,0.06,0.000000,,2013-03-23 08:02:00,
2013-03-23 01:12:00,35.0,33.0,-100.00,ENE,77,2.0,4.0,91,0.00,,,0.06,0.000000,,2013-03-23 08:12:00,
2013-03-23 01:32:00,34.0,32.0,-100.00,East,95,1.0,4.0,91,0.00,,,0.05,0.000000,,2013-03-23 08:32:00,
2013-03-23 01:42:00,34.0,32.0,-100.00,East,95,1.0,4.0,91,0.00,,,0.05,0.000000,,2013-03-23 08:42:00,
2013-03-23 01:52:00,34.0,32.0,-100.00,East,95,1.0,4.0,91,0.00,,,0.05,0.000000,,2013-03-23 08:52:00,
2013-03-23 02:02:00,34.0,32.0,-100.00,East,95,1.0,4.0,91,0.00,,,0.05,0.000000,,2013-03-23 09:02:00,
2013-03-23 02:12:00,34.0,32.0,-100.00,East,95,1.0,4.0,91,0.00,,,0.05,0.000000,,2013-03-23 09:12:00,
2013-03-23 02:33:00,33.0,31.0,-100.00,NE,45,2.0,2.0,94,0.00,,,0.05,0.000000,,2013-03-23 09:33:00,
2013-03-23 02:43:00,33.0,31.0,-100.00,NE,45,2.0,2.0,94,0.00,,,0.05,0.000000,,2013-03-23 09:43:00,
2013-03-23 02:53:00,33.0,31.0,-100.00,NE,45,2.0,2.0,94,0.00,,,0.05,0.000000,,2013-03-23 09:53:00,
2013-03-23 03:03:00,33.0,31.0,-100.00,NE,45,2.0,2.0,94,0.00,,,0.05,0.000000,,2013-03-23 10:03:00,
2013-03-23 03:12:00,33.0,31.0,-100.00,NE,45,2.0,2.0,94,0.00,,,0.05,0.000000,,2013-03-23 10:12:00,
2013-03-23 03:34:00,32.0,30.0,-100.00,East,83,1.0,2.0,94,0.00,,,0.05,0.000000,,2013-03-23 10:34:00,
2013-03-23 03:43:00,32.0,30.0,-100.00,East,83,1.0,2.0,94,0.00,,,0.05,0.000000,,2013-03-23 10:43:00,
2013-03-23 03:52:00,32.0,30.0,-100.00,East,83,1.0,2.0,94,0.00,,,0.05,0.000000,,2013-03-23 10:52:00,
2013-03-23 04:02:00,32.0,30.0,-100.00,East,83,1.0,2.0,94,0.00,,,0.05,0.000000,,2013-03-23 11:02:00,
2013-03-23 04:12:00,32.0,30.0,-100.00,East,83,1.0,2.0,94,0.00,,,0.05,0.000000,,2013-03-23 11:12:00,
2013-03-23 04:32:00,31.0,30.0,-100.00,NE,40,3.0,4.0,95,0.00,,,0.05,0.000000,,2013-03-23 11:32:00,
2013-03-23 04:42:00,31.0,30.0,-100.00,NE,40,3.0,4.0,95,0.00,,,0.05,0.000000,,2013-03-23 11:42:00,
2013-03-23 04:52:00,31.0,30.0,-100.00,NE,40,3.0,4.0,95,0.00,,,0.05,0.000000,,2013-03-23 11:52:00,
2013-03-23 05:02:00,31.0,30.0,-100.00,NE,40,3.0,4.0,95,0.00,,,0.05,0.000000,,2013-03-23 12:02:00,
2013-03-23 05:12:00,31.0,30.0,-100.00,NE,40,3.0,4.0,95,0.00,,,0.05,0.000000,,2013-03-23 12:12:00,
2013-03-23 05:43:00,31.0,30.0,-100.00,NE,54,3.0,4.0,95,0.00,,,0.02,0.000000,,2013-03-23 12:43:00,
2013-03-23 05:53:00,31.0,30.0,-100.00,NE,54,3.0,4.0,95,0.00,,,0.02,0.000000,,2013-03-23 12:53:00,
2013-03-23 06:02:00,31.0,30.0,-100.00,NE,54,3.0,4.0,95,0.00,,,0.02,0.000000,,2013-03-23 13:02:00,
2013-03-23 06:11:00,31.0,30.0,-100.00,NE,54,3.0,4.0,95,0.00,,,0.02,0.000000,,2013-03-23 13:11:00,
2013-03-23 06:33:00,31.0,30.0,-100.00,NE,50,3.0,4.0,95,0.00,,,0.01,0.000000,,2013-03-23 13:33:00,
2013-03-23 06:43:00,31.0,30.0,-100.00,NE,50,3.0,4.0,95,0.00,,,0.01,0.000000,,2013-03-23 13:43:00,
2013-03-23 06:53:00,31.0,30.0,-100.00,NE,50,3.0,4.0,95,0.00,,,0.01,0.000000,,2013-03-23 13:53:00,
2013-03-23 07:03:00,31.0,30.0,-100.00,NE,50,3.0,4.0,95,0.00,,,0.01,0.000000,,2013-03-23 14:03:00,
2013-03-23 07:12:00,31.0,30.0,-100.00,NE,50,3.0,4.0,95,0.00,,,0.01,0.000000,,2013-03-23 14:12:00,
2013-03-23 07:33:00,31.0,30.0,-100.00,ENE,63,2.0,4.0,96,0.00,,,0.00,0.000000,,2013-03-23 14:33:00,
2013-03-23 07:43:00,31.0,30.0,-100.00,ENE,63,2.0,4.0,96,0.00,,,0.00,0.000000,,2013-03-23 14:43:00,
2013-03-23 07:52:00,31.0,30.0,-100.00,ENE,63,2.0,4.0,96,0.00,,,0.00,0.000000,,2013-03-23 14:52:00,
2013-03-23 08:02:00,31.0,30.0,-100.00,ENE,63,2.0,4.0,96,0.00,,,0.00,0.000000,,2013-03-23 15:02:00,
2013-03-23 08:11:00,31.0,30.0,-100.00,ENE,63,2.0,4.0,96,0.00,,,0.00,0.000000,,2013-03-23 15:11:00,
2013-03-23 08:34:00,33.0,32.0,-100.00,ENE,61,2.0,3.0,96,0.00,,,0.00,45.000000,,2013-03-23 15:34:00,
2013-03-23 08:44:00,33.0,32.0,-100.00,ENE,61,2.0,3.0,96,0.00,,,0.00,45.000000,,2013-03-23 15:44:00,
2013-03-23 08:53:00,33.0,32.0,-100.00,ENE,61,2.0,3.0,96,0.00,,,0.00,45.000000,,2013-03-23 15:53:00,
2013-03-23 09:03:00,33.0,32.0,-100.00,ENE,61,2.0,3.0,96,0.00,,,0.00,45.000000,,2013-03-23 16:03:00,
2013-03-23 09:12:00,33.0,32.0,-100.00,ENE,61,2.0,3.0,96,0.00,,,0.00,45.000000,,2013-03-23 16:12:00,
2013-03-23 09:33:00,35.0,33.0,-100.00,NNE,33,3.0,5.0,93,0.00,,,0.00,199.000000,,2013-03-23 16:33:00,
2013-03-23 09:43:00,35.0,33.0,-100.00,NNE,33,3.0,5.0,93,0.00,,,0.00,199.000000,,2013-03-23 16:43:00,
2013-03-23 09:53:00,35.0,33.0,-100.00,NNE,33,3.0,5.0,93,0.00,,,0.00,199.000000,,2013-03-23 16:53:00,
2013-03-23 10:02:00,35.0,33.0,-100.00,NNE,33,3.0,5.0,93,0.00,,,0.00,199.000000,,2013-03-23 17:02:00,
2013-03-23 10:11:00,35.0,33.0,-100.00,NNE,33,3.0,5.0,93,0.00,,,0.00,199.000000,,2013-03-23 17:11:00,
2013-03-23 10:33:00,42.0,35.0,-100.00,NE,35,3.0,5.0,77,0.00,,,0.00,459.000000,,2013-03-23 17:33:00,
2013-03-23 10:43:00,42.0,35.0,-100.00,NE,35,3.0,5.0,77,0.00,,,0.00,459.000000,,2013-03-23 17:43:00,
2013-03-23 10:52:00,42.0,35.0,-100.00,NE,35,3.0,5.0,77,0.00,,,0.00,459.000000,,2013-03-23 17:52:00,
2013-03-23 11:02:00,42.0,35.0,-100.00,NE,35,3.0,5.0,77,0.00,,,0.00,459.000000,,2013-03-23 18:02:00,
2013-03-23 11:12:00,42.0,35.0,-100.00,NE,35,3.0,5.0,77,0.00,,,0.00,459.000000,,2013-03-23 18:12:00,
2013-03-23 11:43:00,45.0,33.0,-100.00,NNE,14,3.0,6.0,62,0.00,,,0.00,486.000000,,2013-03-23 18:43:00,
2013-03-23 11:53:00,45.0,33.0,-100.00,NNE,14,3.0,6.0,62,0.00,,,0.00,486.000000,,2013-03-23 18:53:00,
2013-03-23 12:02:00,45.0,33.0,-100.00,NNE,14,3.0,6.0,62,0.00,,,0.00,486.000000,,2013-03-23 19:02:00,
2013-03-23 12:12:00,45.0,33.0,-100.00,NNE,14,3.0,6.0,62,0.00,,,0.00,486.000000,,2013-03-23 19:12:00,
2013-03-23 12:43:00,50.0,32.0,-100.00,North,358,3.0,7.0,49,0.00,,,0.00,775.000000,,2013-03-23 19:43:00,
2013-03-23 12:53:00,50.0,32.0,-100.00,North,358,3.0,7.0,49,0.00,,,0.00,775.000000,,2013-03-23 19:53:00,
2013-03-23 13:02:00,50.0,32.0,-100.00,North,358,3.0,7.0,49,0.00,,,0.00,775.000000,,2013-03-23 20:02:00,
2013-03-23 13:12:00,50.0,32.0,-100.00,North,358,3.0,7.0,49,0.00,,,0.00,775.000000,,2013-03-23 20:12:00,
2013-03-23 13:43:00,51.0,34.0,-100.00,NNE,13,3.0,7.0,53,0.00,,,-99.99,806.000000,,2013-03-23 20:43:00,
2013-03-23 13:53:00,51.0,34.0,-100.00,NNE,13,3.0,7.0,53,0.00,,,-99.99,806.000000,,2013-03-23 20:53:00,
2013-03-23 14:02:00,51.0,34.0,-100.00,NNE,13,3.0,7.0,53,0.00,,,-99.99,806.000000,,2013-03-23 21:02:00,
2013-03-23 14:12:00,51.0,34.0,-100.00,NNE,13,3.0,7.0,53,0.00,,,-99.99,806.000000,,2013-03-23 21:12:00,
2013-03-23 14:33:00,51.0,34.0,-100.00,NNE,24,4.0,7.0,52,0.00,,,0.00,667.000000,,2013-03-23 21:33:00,
2013-03-23 14:43:00,51.0,34.0,-100.00,NNE,24,4.0,7.0,52,0.00,,,0.00,667.000000,,2013-03-23 21:43:00,
2013-03-23 14:53:00,51.0,34.0,-100.00,NNE,24,4.0,7.0,52,0.00,,,0.00,667.000000,,2013-03-23 21:53:00,
2013-03-23 15:02:00,51.0,34.0,-100.00,NNE,24,4.0,7.0,52,0.00,,,0.00,667.000000,,2013-03-23 22:02:00,
2013-03-23 15:12:00,51.0,34.0,-100.00,NNE,24,4.0,7.0,52,0.00,,,0.00,667.000000,,2013-03-23 22:12:00,
2013-03-23 15:33:00,51.0,35.0,-100.00,NNE,27,4.0,8.0,55,0.00,,,0.00,683.000000,,2013-03-23 22:33:00,
2013-03-23 15:42:00,51.0,35.0,-100.00,NNE,27,4.0,8.0,55,0.00,,,0.00,683.000000,,2013-03-23 22:42:00,
2013-03-23 15:53:00,51.0,35.0,-100.00,NNE,27,4.0,8.0,55,0.00,,,0.00,683.000000,,2013-03-23 22:53:00,
2013-03-23 16:02:00,51.0,35.0,-100.00,NNE,27,4.0,8.0,55,0.00,,,0.00,683.000000,,2013-03-23 23:02:00,
2013-03-23 16:12:00,51.0,35.0,-100.00,NNE,27,4.0,8.0,55,0.00,,,0.00,683.000000,,2013-03-23 23:12:00,
2013-03-23 16:33:00,49.0,34.0,-100.00,NNE,19,4.0,10.0,57,0.00,,,0.00,519.000000,,2013-03-23 23:33:00,
2013-03-23 16:43:00,49.0,34.0,-100.00,NNE,19,4.0,10.0,57,0.00,,,0.00,519.000000,,2013-03-23 23:43:00,
2013-03-23 16:52:00,49.0,34.0,-100.00,NNE,19,4.0,10.0,57,0.00,,,0.00,519.000000,,2013-03-23 23:52:00,
2013-03-23 17:02:00,49.0,34.0,-100.00,NNE,19,4.0,10.0,57,0.00,,,0.00,519.000000,,2013-03-24 00:02:00,
2013-03-23 17:12:00,49.0,34.0,-100.00,NNE,19,4.0,10.0,57,0.00,,,0.00,519.000000,,2013-03-24 00:12:00,
2013-03-23 17:33:00,46.0,33.0,-100.00,NNE,20,6.0,10.0,61,0.00,,,-99.99,448.000000,,2013-03-24 00:33:00,
2013-03-23 17:42:00,46.0,33.0,-100.00,NNE,20,6.0,10.0,61,0.00,,,-99.99,448.000000,,2013-03-24 00:42:00,
2013-03-23 17:52:00,46.0,33.0,-100.00,NNE,20,6.0,10.0,61,0.00,,,-99.99,448.000000,,2013-03-24 00:52:00,
2013-03-23 18:02:00,46.0,33.0,-100.00,NNE,20,6.0,10.0,61,0.00,,,-99.99,448.000000,,2013-03-24 01:02:00,
2013-03-23 18:12:00,46.0,33.0,-100.00,NNE,20,6.0,10.0,61,0.00,,,-99.99,448.000000,,2013-03-24 01:12:00,
2013-03-23 18:33:00,44.0,33.0,-100.00,NNE,19,5.0,10.0,66,0.00,,,0.00,196.000000,,2013-03-24 01:33:00,
2013-03-23 18:43:00,44.0,33.0,-100.00,NNE,19,5.0,10.0,66,0.00,,,0.00,196.000000,,2013-03-24 01:43:00,
2013-03-23 18:53:00,44.0,33.0,-100.00,NNE,19,5.0,10.0,66,0.00,,,0.00,196.000000,,2013-03-24 01:53:00,
2013-03-23 19:02:00,44.0,33.0,-100.00,NNE,19,5.0,10.0,66,0.00,,,0.00,196.000000,,2013-03-24 02:02:00,
2013-03-23 19:12:00,44.0,33.0,-100.00,NNE,19,5.0,10.0,66,0.00,,,0.00,196.000000,,2013-03-24 02:12:00,
2013-03-23 19:43:00,42.0,34.0,-100.00,NNE,14,4.0,8.0,73,0.00,,,0.00,75.000000,,2013-03-24 02:43:00,
2013-03-23 19:52:00,42.0,34.0,-100.00,NNE,14,4.0,8.0,73,0.00,,,0.00,75.000000,,2013-03-24 02:52:00,
2013-03-23 20:02:00,42.0,34.0,-100.00,NNE,14,4.0,8.0,73,0.00,,,0.00,75.000000,,2013-03-24 03:02:00,
2013-03-23 20:12:00,42.0,34.0,-100.00,NNE,14,4.0,8.0,73,0.00,,,0.00,75.000000,,2013-03-24 03:12:00,
2013-03-23 20:33:00,41.0,34.0,-100.00,NNE,16,4.0,7.0,77,0.00,,,0.00,5.000000,,2013-03-24 03:33:00,
2013-03-23 20:43:00,41.0,34.0,-100.00,NNE,16,4.0,7.0,77,0.00,,,0.00,5.000000,,2013-03-24 03:43:00,
2013-03-23 20:53:00,41.0,34.0,-100.00,NNE,16,4.0,7.0,77,0.00,,,0.00,5.000000,,2013-03-24 03:53:00,
2013-03-23 21:02:00,41.0,34.0,-100.00,NNE,16,4.0,7.0,77,0.00,,,0.00,5.000000,,2013-03-24 04:02:00,
2013-03-23 21:12:00,41.0,34.0,-100.00,NNE,16,4.0,7.0,77,0.00,,,0.00,5.000000,,2013-03-24 04:12:00,
2013-03-23 21:33:00,40.0,34.0,-100.00,NNE,20,4.0,7.0,80,0.00,,,0.00,0.000000,,2013-03-24 04:33:00,
2013-03-23 21:43:00,40.0,34.0,-100.00,NNE,20,4.0,7.0,80,0.00,,,0.00,0.000000,,2013-03-24 04:43:00,
2013-03-23 21:53:00,40.0,34.0,-100.00,NNE,20,4.0,7.0,80,0.00,,,0.00,0.000000,,2013-03-24 04:53:00,
2013-03-23 22:02:00,40.0,34.0,-100.00,NNE,20,4.0,7.0,80,0.00,,,0.00,0.000000,,2013-03-24 05:02:00,
2013-03-23 22:12:00,40.0,34.0,-100.00,NNE,20,4.0,7.0,80,0.00,,,0.00,0.000000,,2013-03-24 05:12:00,
2013-03-23 22:32:00,39.0,34.0,-100.00,NNE,26,3.0,5.0,82,0.00,,,-99.99,0.000000,,2013-03-24 05:32:00,
2013-03-23 22:43:00,39.0,34.0,-100.00,NNE,26,3.0,5.0,82,0.00,,,-99.99,0.000000,,2013-03-24 05:43:00,
2013-03-23 22:52:00,39.0,34.0,-100.00,NNE,26,3.0,5.0,82,0.00,,,-99.99,0.000000,,2013-03-24 05:52:00,
2013-03-23 23:02:00,39.0,34.0,-100.00,NNE,26,3.0,5.0,82,0.00,,,-99.99,0.000000,,2013-03-24 06:02:00,
2013-03-23 23:12:00,39.0,34.0,-100.00,NNE,26,3.0,5.0,82,0.00,,,-99.99,0.000000,,2013-03-24 06:12:00,
2013-03-23 23:32:00,38.0,34.0,-100.00,NE,43,3.0,4.0,84,0.00,,,0.00,0.000000,,2013-03-24 06:32:00,
2013-03-23 23:42:00,38.0,34.0,-100.00,NE,43,3.0,4.0,84,0.00,,,0.00,0.000000,,2013-03-24 06:42:00,
2013-03-23 23:52:00,38.0,34.0,-100.00,NE,43,3.0,4.0,84,0.00,,,0.00,0.000000,,2013-03-24 06:52:00,